Casper-Natrona County International Airport Casper US
ICAO: KCPR
IATA: CPR
Category: Large
Scheduled Services: Yes

Elevation: 5350 ft
TransAlt. 18000 ft.

Airport Communications:
CASPER APP/DEP:119
VFR ADVSY SVC:118.3
ATIS:126.15
CTAF:118.3
CASPER GND/CLNC DEL:121.9
CASPER RDO:122.2
CASPER TWR:118.3
UNICOM:122.95

KCPR Zoom In..

If you have problems with the map follow the link
https://www.worldairports.se/pages/airport.php?
ICAO=KCPR

Runways:

(A) RW 03 length 10165 ft width 150 ft
ILS 111.30 / hdg 32

(B) RW 08 length 8679 ft width 150 ft
ILS 110.30 / hdg 77

(C) RW 21 length 10165 ft width 150 ft
---- / hdg 212

(D) RW 26 length 8679 ft width 150 ft
---- / hdg 257

Location; KCPR
Day. 16 / Time. 01.53 Zulu
* Altimeter: 29.90
* Temperature: -12° c. -10.4°f.
* Wind from: 240° Speed 12 kn.
Dewpoint: -16° c.
Visibility: 10 Statute Miles.
Clouds: Clear (automated report).

KCPR 160153Z 24012KT 10SM CLR M12/M16 A2990 RMK AO2 SLP201 T11221156


Wind From 240°
Speed 12 kn.

 
 
jpsmedia worldairports.se 2019   terms of use